KO4VHB Weather Reports


time (UTC)temp
F
wind
direction
speed
knots
gust
knots
rain 1hr
in
rain 24hr
in
rain mn
in
humidity
%
barometer
mb
20260503052952 77 200 1.7 3.5 0.00 0.00 0.00
20260503052452 77 236 1.7 3.5 0.00 0.00 0.00
20260503051952 77 245 1.7 3.5 0.00 0.00 0.00
20260503051452 77 270 1.7 4.3 0.00 0.00 0.00
20260503050951 77 267 1.7 3.5 0.00 0.00 0.00
20260503050451 77 228 1.7 6.1 0.00 0.00 0.00
20260503045951 77 266 1.7 4.3 0.00 0.00 0.00
20260503045451 77 283 1.7 4.3 0.00 0.00 0.00
20260503044950 77 250 1.7 5.2 0.00 0.00 0.00
20260503044449 77 217 2.6 3.5 0.00 0.00 0.00
20260503043449 77 267 0.9 3.5 0.00 0.00 0.00
20260503042947 76 226 2.6 6.1 0.00 0.00 0.00
20260503042447 76 263 1.7 5.2 0.00 0.00 0.00
20260503041946 76 280 1.7 3.5 0.00 0.00 0.00
20260503041446 77 245 0.9 3.5 0.00 0.00 0.00
20260503040946 77 269 1.7 3.5 0.00 0.00 0.00
20260503040445 77 222 1.7 3.5 0.00 0.00 0.00
20260503035945 78 235 1.7 3.5 0.00 0.00 0.00
20260503034945 78 262 0.9 2.6 0.00 0.00 0.00
20260503034444 78 270 2.6 5.2 0.00 0.00 0.00
20260503033942 78 259 1.7 3.5 0.00 0.00 0.00
20260503033442 79 266 2.6 6.1 0.00 0.00 0.00
20260503032941 79 269 1.7 4.3 0.00 0.00 0.00
20260503032441 79 285 2.6 4.3 0.00 0.00 0.00
20260503031941 79 218 1.7 4.3 0.00 0.00 0.00
20260503031441 79 283 1.7 5.2 0.00 0.00 0.00
20260503030941 79 255 2.6 5.2 0.00 0.00 0.00
20260503030440 79 264 3.5 7.0 0.00 0.00 0.00
20260503025940 79 291 2.6 6.1 0.00 0.00 0.00
20260503025440 79 260 3.5 6.1 0.00 0.00 0.00
20260503024940 79 233 2.6 4.3 0.00 0.00 0.00
20260503024439 79 264 2.6 4.3 0.00 0.00 0.00
20260503023939 79 263 2.6 7.0 0.00 0.00 0.00
20260503023436 80 255 2.6 4.3 0.00 0.00 0.00
20260503022935 80 278 3.5 7.0 0.00 0.00 0.00
20260503022435 80 248 2.6 6.1 0.00 0.00 0.00
20260503021935 80 263 2.6 5.2 0.00 0.00 0.00
20260503021435 80 271 2.6 4.3 0.00 0.00 0.00
20260503020935 80 224 2.6 6.1 0.00 0.00 0.00
20260503020434 80 214 2.6 5.2 0.00 0.00 0.00
20260503015934 80 205 3.5 6.1 0.00 0.00 0.00
20260503015430 80 269 2.6 6.1 0.00 0.00 0.00
20260503014930 80 278 3.5 6.1 0.00 0.00 0.00
20260503014430 81 233 3.5 7.0 0.00 0.00 0.00
20260503014227 81 263 3.5 7.8 0.00 0.00 0.00
20260503014221 81 242 3.5 7.0 0.00 0.00 0.00
20260503014150 81 236 3.5 8.7 0.00 0.00 0.00
20260503013931 81 242 3.5 7.0 0.00 0.00 0.00
20260503012429 81 242 4.3 8.7 0.00 0.00 0.00
20260503011929 81 242 3.5 6.1 0.00 0.00 0.00
20260503010928 82 270 3.5 9.6 0.00 0.00 0.00
20260503010428 82 274 3.5 7.0 0.00 0.00 0.00
20260503005928 82 215 3.5 6.1 0.00 0.00 0.00
20260503005429 82 253 3.5 7.0 0.00 0.00 0.00
20260503004927 82 271 3.5 7.0 0.00 0.00 0.00
20260503004424 82 259 3.5 7.0 0.00 0.00 0.00
20260503003924 83 240 3.5 8.7 0.00 0.00 0.00
20260503003424 83 245 5.2 7.8 0.00 0.00 0.00
20260503002924 83 250 3.5 5.2 0.00 0.00 0.00
20260503002424 83 250 3.5 7.0 0.00 0.00 0.00
20260503001923 83 260 2.6 7.8 0.00 0.00 0.00
20260503001423 84 264 2.6 6.1 0.00 0.00 0.00
20260503000923 84 259 2.6 7.0 0.00 0.00 0.00
20260503000423 83 238 3.5 7.8 0.00 0.00 0.00
20260502235922 83 281 3.5 7.8 0.00 0.00 0.00
20260502235422 83 260 4.3 8.7 0.00 0.00 0.00
20260502234921 84 262 2.6 8.7 0.00 0.00 0.00
20260502234420 84 260 4.3 10.4 0.00 0.00 0.00
20260502233920 84 263 4.3 7.0 0.00 0.00 0.00
20260502233420 84 259 4.3 9.6 0.00 0.00 0.00
20260502232918 84 266 2.6 7.0 0.00 0.00 0.00
20260502232418 85 253 1.7 5.2 0.00 0.00 0.00
20260502231920 85 256 3.5 7.8 0.00 0.00 0.00
20260502231421 86 260 3.5 8.7 0.00 0.00 0.00
20260502230917 85 259 1.7 6.1 0.00 0.00 0.00
20260502230417 86 255 4.3 8.7 0.00 0.00 0.00
20260502225917 86 255 2.6 7.0 0.00 0.00 0.00
20260502225416 86 285 2.6 6.1 0.00 0.00 0.00
20260502224916 86 264 3.5 7.8 0.00 0.00 0.00
20260502224416 87 267 3.5 8.7 0.00 0.00 0.00
20260502223914 87 259 4.3 10.4 0.00 0.00 0.00
20260502222412 88 243 3.5 9.6 0.00 0.00 0.00
20260502221912 88 260 3.5 8.7 0.00 0.00 0.00
20260502221411 88 263 3.5 9.6 0.00 0.00 0.00
20260502220911 88 284 4.3 8.7 0.00 0.00 0.00
20260502220411 88 259 5.2 10.4 0.00 0.00 0.00
20260502215911 88 218 3.5 8.7 0.00 0.00 0.00
20260502215410 88 249 5.2 13.0 0.00 0.00 0.00
20260502214910 89 212 4.3 13.0 0.00 0.00 0.00
20260502214410 89 232 3.5 7.8 0.00 0.00 0.00
20260502213910 89 264 4.3 10.4 0.00 0.00 0.00
20260502213410 89 235 3.5 7.0 0.00 0.00 0.00
20260502212909 89 271 5.2 11.3 0.00 0.00 0.00
20260502212409 89 252 4.3 9.6 0.00 0.00 0.00
20260502211909 90 246 4.3 9.6 0.00 0.00 0.00
20260502211409 91 255 3.5 7.8 0.00 0.00 0.00
20260502210907 91 232 5.2 12.2 0.00 0.00 0.00
20260502210407 92 257 4.3 10.4 0.00 0.00 0.00
20260502205907 92 250 5.2 10.4 0.00 0.00 0.00
20260502205407 92 256 4.3 10.4 0.00 0.00 0.00
20260502204906 92 253 5.2 13.0 0.00 0.00 0.00
20260502204403 93 215 5.2 15.6 0.00 0.00 0.00
20260502203903 93 280 4.3 10.4 0.00 0.00 0.00
20260502203402 93 228 5.2 12.2 0.00 0.00 0.00
20260502202902 92 262 4.3 12.2 0.00 0.00 0.00
20260502202402 91 252 4.3 9.6 0.00 0.00 0.00
20260502201902 92 267 7.0 18.2 0.00 0.00 0.00
20260502200901 93 274 3.5 10.4 0.00 0.00 0.00
20260502200401 94 264 5.2 12.2 0.00 0.00 0.00
20260502195901 94 193 6.1 13.0 0.00 0.00 0.00
20260502195358 94 262 5.2 15.6 0.00 0.00 0.00
20260502194858 94 257 5.2 14.8 0.00 0.00 0.00
20260502193857 94 262 5.2 10.4 0.00 0.00 0.00
20260502193357 94 278 6.1 12.2 0.00 0.00 0.00
20260502192857 92 262 4.3 9.6 0.00 0.00 0.00
20260502192356 93 215 7.0 16.5 0.00 0.00 0.00
20260502191856 94 269 6.1 12.2 0.00 0.00 0.00
20260502191356 95 236 5.2 12.2 0.00 0.00 0.00
20260502190856 94 270 6.1 18.2 0.00 0.00 0.00
20260502190356 94 211 6.1 11.3 0.00 0.00 0.00
20260502185855 93 257 5.2 10.4 0.00 0.00 0.00
20260502185355 93 193 7.0 13.9 0.00 0.00 0.00
20260502184855 92 271 5.2 12.2 0.00 0.00 0.00
20260502184355 91 243 7.0 16.5 0.00 0.00 0.00
20260502183854 91 225 6.1 12.2 0.00 0.00 0.00
20260502183353 92 215 4.3 12.2 0.00 0.00 0.00
20260502182852 91 222 4.3 8.7 0.00 0.00 0.00
20260502182351 92 280 6.1 13.0 0.00 0.00 0.00
20260502181850 92 231 5.2 12.2 0.00 0.00 0.00
20260502181350 91 221 5.2 10.4 0.00 0.00 0.00
20260502180850 92 236 5.2 12.2 0.00 0.00 0.00
20260502180349 92 228 4.3 9.6 0.00 0.00 0.00
20260502170342 93 264 5.2 9.6 0.00 0.00 0.00
20260502164333 92 204 5.2 13.0 0.00 0.00 0.00
20260502163832 93 256 4.3 10.4 0.00 0.00 0.00
20260502162830 93 231 4.3 9.6 0.00 0.00 0.00
20260502162329 92 212 4.3 8.7 0.00 0.00 0.00
20260502161829 92 245 4.3 8.7 0.00 0.00 0.00
20260502161329 93 146 6.1 12.2 0.00 0.00 0.00
20260502160829 93 228 4.3 10.4 0.00 0.00 0.00
20260502160328 92 229 6.1 11.3 0.00 0.00 0.00
20260502152327 90 155 3.5 8.7 0.00 0.00 0.00
20260502151826 89 210 4.3 10.4 0.00 0.00 0.00
20260502151326 89 228 4.3 7.8 0.00 0.00 0.00
20260502150826 89 195 4.3 8.7 0.00 0.00 0.00
20260502150326 89 273 5.2 10.4 0.00 0.00 0.00
20260502130312 81 187 4.3 8.7 0.00 0.00 0.00
20260502123811 80 263 2.6 6.1 0.00 0.00 0.00
20260502123310 79 219 0.9 2.6 0.00 0.00 0.00
20260502122809 78 169 0.9 2.6 0.00 0.00 0.00
20260502122306 78 201 0.9 3.5 0.00 0.00 0.00
20260502121806 78 201 0.9 2.6 0.00 0.00 0.00
20260502121306 76 218 0.9 2.6 0.00 0.00 0.00
20260502121009 77 205 0.9 2.6 0.00 0.00 0.00
20260502120804 77 205 0.9 2.6 0.00 0.00 0.00
20260502120303 76 0 0.0 0.0 0.00 0.00 0.00
20260502115803 76 0 0.0 0.0 0.00 0.00 0.00
20260502115305 75 0 0.0 0.0 0.00 0.00 0.00
20260502115220 75 0 0.0 0.0 0.00 0.00 0.00
20260502114803 75 0 0.0 0.0 0.00 0.00 0.00
20260502114302 74 0 0.0 0.0 0.00 0.00 0.00
20260502113801 74 0 0.0 0.0 0.00 0.00 0.00
20260502113301 74 0 0.0 0.0 0.00 0.00 0.00
20260502111759 73 0 0.0 0.0 0.00 0.00 0.00
20260502111258 73 304 0.0 0.0 0.00 0.00 0.00
20260502110758 73 0 0.0 0.0 0.00 0.00 0.00
20260502110258 73 0 0.0 0.0 0.00 0.00 0.00
20260502105758 73 0 0.0 0.0 0.00 0.00 0.00
20260502105257 73 0 0.0 0.0 0.00 0.00 0.00
20260502105140 73 0 0.0 0.0 0.00 0.00 0.00
20260502104754 73 0 0.0 0.0 0.00 0.00 0.00
20260502104254 73 0 0.0 0.0 0.00 0.00 0.00
20260502103754 73 0 0.0 0.0 0.00 0.00 0.00
20260502103253 73 0 0.0 0.0 0.00 0.00 0.00
20260502102753 73 0 0.0 0.0 0.00 0.00 0.00
20260502102252 73 0 0.0 0.0 0.00 0.00 0.00
20260502101751 73 0 0.0 0.0 0.00 0.00 0.00
20260502101251 74 0 0.0 0.0 0.00 0.00 0.00
20260502100751 74 0 0.0 0.0 0.00 0.00 0.00
20260502100251 73 0 0.0 0.0 0.00 0.00 0.00
20260502100143 74 0 0.0 0.0 0.00 0.00 0.00
20260502091237 73 0 0.0 0.0 0.00 0.00 0.00
20260502090735 73 0 0.0 0.0 0.00 0.00 0.00
20260502090235 73 0 0.0 0.0 0.00 0.00 0.00
20260502070218 73 0 0.0 0.0 0.00 0.00 0.00
20260502065212 73 0 0.0 0.0 0.00 0.00 0.00
20260502064711 73 0 0.0 0.0 0.00 0.00 0.00
20260502064208 73 0 0.0 0.0 0.00 0.00 0.00
20260502063707 73 0 0.0 0.0 0.00 0.00 0.00
20260502062702 72 0 0.0 0.0 0.00 0.00 0.00
20260502062159 73 0 0.0 0.0 0.00 0.00 0.00
20260502061659 73 0 0.0 0.0 0.00 0.00 0.00
20260502061156 73 248 0.0 0.9 0.00 0.00 0.00
20260502060656 73 0 0.0 0.0 0.00 0.00 0.00
20260502060152 73 0 0.0 0.0 0.00 0.00 0.00
20260502055652 73 0 0.0 0.0 0.00 0.00 0.00
20260502055152 73 0 0.0 0.0 0.00 0.00 0.00
20260502054645 73 0 0.0 0.0 0.00 0.00 0.00
20260502054141 73 0 0.0 0.0 0.00 0.00 0.00